Location: Gälforsberget
(66.6500°N, 22.4167°E)
Time: 17:14:10
(UTC+00:00)

Cosmos 1605 Rocket - Pass Details

Date: 11 April 2026
Orbit: 945 x 1004 km, 82.9° (Epoch: 16 May)

Event Time Altitude Azimuth Distance (km) Brightness Sun altitude
Exits shadow 20:48:11 17° 160° (SSE) 2,220 5.2 -12.5°
Maximum altitude 20:52:43 50° 92° (E) 1,204 4.3 -12.7°
Drops below altitude 10° 20:58:36 10° 19° (NNE) 2,697 7.0 -12.9°
Sets 21:01:11 0° 15° (NNE) 3,653 7.9 -13.0°
